RH
64 59 57 57 65 73 76 81 82 82 84 97 100 100 100 89 75 71 71 68 84 91 91 91 89 87 87
75 71 65 62 64 68 72 74 79 87 100 100 100 99 87 82 81 75 57 72 96 96 92 89 85 84 84
85 79 75 74 75 81 84 90 100 100 100 100 95 98 87 75 76 61 58 95 94 88 87 84 84 88 88
96 91 87 85 84 88 97 100 100 100 100 100 93 88 92 90 52 71 95 87 82 80 85 88 91 91 90
98 98 98 100 99 98 100 100 100 100 100 100 96 94 78 50 83 92 86 77 68 76 87 91 93 89 86
95 96 97 98 99 100 100 100 100 100 100 99 93 88 72 50 98 90 87 75 75 86 92 91 92 84 83
91 93 94 92 98 100 100 99 100 98 94 98 92 83 64 68 99 92 83 76 73 84 93 88 80 80 82
98 98 99 99 100 100 100 100 98 94 91 96 91 53 37 84 96 71 47 61 65 85 82 76 78 79 79
100 100 100 100 100 98 99 93 99 98 64 53 52 38 46 72 73 40 33 40 41 77 72 67 75 78 44
99 100 99 99 98 94 93 93 94 97 81 56 54 41 42 46 40 33 33 35 36 59 57 44 71 69 65
100 100 98 94 90 86 74 53 56 86 73 54 52 48 46 44 37 36 36 41 44 42 40 36 48 68 74
95 92 89 66 51 38 35 32 40 48 51 39 45 46 48 53 51 40 42 45 54 47 48 45 38 36 38
99 86 59 53 56 54 47 43 42 43 45 44 44 47 52 59 63 60 79 58 52 50 54 55 48 44 61
82 62 64 69 57 43 39 39 42 52 48 46 42 41 47 54 63 64 67 75 59 56 69 66 52 42 57
58 59 61 61 62 58 45 40 42 55 46 41 38 39 39 47 53 62 63 63 59 60 71 89 77 58 74
52 43 41 41 45 42 36 39 52 58 56 53 43 34 33 42 49 62 60 70 68 66 73 98 90 64 77
42 41 41 47 41 46 48 49 64 64 68 70 73 75 95 98 47 56 74 66 81 84 89 97 100 78 88
Wind_Speed
14 13 10 7 6 7 10 11 13 15 19 19 19 20 15 10 7 5 5 5 4 8 10 12 14 15 17
16 18 17 14 12 12 15 17 17 18 19 20 17 9 6 4 5 5 5 5 5 8 11 12 15 16 18
18 19 17 15 15 14 15 16 16 17 16 12 6 6 4 3 6 8 4 1 5 9 11 15 17 17 18
20 21 19 16 16 19 16 16 16 16 12 9 7 4 4 4 5 1 2 4 8 12 15 16 16 17 19
19 13 16 16 18 18 20 20 14 14 11 7 5 2 1 4 1 0 3 7 12 14 15 13 15 19 21
19 15 20 21 22 22 18 10 5 11 9 7 3 4 3 3 4 3 5 9 14 15 15 14 18 23 25
22 24 20 22 20 16 16 8 6 6 8 4 4 1 1 5 4 4 8 12 15 14 14 17 21 23 26
25 23 20 17 15 14 15 16 15 10 7 3 2 2 1 6 5 2 9 14 16 15 17 21 23 25 25
17 15 12 11 11 14 18 15 5 5 5 3 2 2 2 7 5 3 9 16 16 15 21 25 26 27 33
21 22 18 18 15 12 17 16 12 5 2 4 2 3 3 4 1 7 14 19 19 19 24 28 29 32 33
26 24 22 20 18 16 13 12 16 8 5 6 4 4 3 4 6 6 21 20 18 26 28 28 28 28 32
30 26 25 22 21 20 18 17 16 17 11 6 6 6 4 3 4 13 19 19 13 29 29 28 29 31 31
27 28 25 25 24 25 22 20 20 17 13 11 10 6 3 3 5 10 15 19 19 27 29 29 32 34 37
30 30 27 26 25 22 21 19 19 17 12 11 10 7 5 6 8 9 14 15 26 28 28 29 31 32 34
35 32 29 25 20 16 15 12 14 14 13 11 11 8 8 4 5 9 19 24 27 28 31 28 29 34 32
34 32 30 27 25 22 20 19 20 16 15 15 16 12 10 6 6 11 18 22 26 30 31 26 25 36 32
34 31 29 26 24 22 20 20 19 16 15 14 14 15 4 3 10 11 14 26 27 32 27 24 26 37 34
Wind_Direction
237 251 258 256 236 234 236 233 240 253 262 268 272 266 262 265 270 300 317 308 333 347 337 336 336 331 335
245 254 256 260 256 248 244 248 253 259 263 259 247 244 224 228 272 311 320 309 354 352 342 335 335 333 333
240 254 259 253 253 244 241 244 247 235 234 221 201 190 203 273 305 318 323 331 345 350 340 336 336 337 338
244 246 251 246 240 239 234 231 220 222 221 226 208 214 270 305 339 338 198 335 358 354 347 344 343 341 338
236 228 220 220 222 238 233 228 215 222 217 226 219 213 4 24 90 269 8 4 358 356 347 346 343 341 338
228 222 223 228 236 228 208 178 172 201 197 168 182 155 137 80 136 358 28 8 358 357 352 346 341 340 338
225 231 236 242 235 210 201 165 125 118 139 121 130 191 108 129 144 22 31 7 1 360 358 351 346 342 338
232 234 239 241 234 222 180 138 111 89 109 113 145 133 336 163 175 3 7 3 2 6 358 353 348 342 337
196 180 177 170 172 152 134 126 102 88 56 119 60 15 200 188 196 347 4 355 358 3 359 353 349 341 340
133 133 132 129 127 138 143 133 126 116 78 127 111 52 166 170 285 345 354 354 355 3 358 355 351 344 341
132 123 122 122 124 126 129 140 137 118 134 147 101 63 46 323 317 345 349 351 356 357 356 357 352 348 340
132 126 120 119 116 115 118 119 115 113 106 97 105 71 26 343 328 327 343 353 355 355 354 354 351 348 349
124 125 130 127 125 119 111 105 101 94 83 74 65 47 20 335 309 325 346 348 353 347 348 348 347 347 340
125 128 130 132 127 124 117 110 95 82 75 59 43 31 22 345 331 343 358 344 342 345 341 342 348 347 339
130 132 132 129 123 129 123 114 105 88 74 57 43 38 5 356 357 4 347 344 346 342 341 334 339 341 328
132 133 131 128 123 118 115 106 99 83 67 45 36 38 45 43 16 351 348 341 343 343 342 327 324 334 328
134 132 128 123 123 118 112 107 100 91 76 56 48 52 65 349 358 9 338 341 341 338 333 321 312 325 327